Starlink 30284

operational
NORAD ID: 57877 Int'l Des: 2023-144 Owner: SPXS Country: US Constellation: starlink
LEOCIRCULAR

Über Starlink 30284

Beschreibung wird geladen...

Live-Position

3D-Globus wird geladen...

Nächste Überflüge

Höhenverlauf

Altitude vs Time

uPlot chart will show altitude changes over time

Zweizeiliger Elementsatz

1 57877U 23144P 25305.46798306 -.00000381 00000-0 -13111-4 0 9991
2 57877 43.0041 225.8796 0001024 267.1031 92.9695 15.02534435118769
Epoch: 1. Nov. 2025 • Age: 12 hours

Aktueller Status

Höhe 559.6 km
Geschwindigkeit 7.58 km/s
Subsatellitenpunkt -5.30°S, 18.88°E
Startdatum 16. Sept. 2023
Alter 2.1 years
Typ internet

Technische Details

Klassifizierung Payload
Masse 730.00 kg
Trockenmasse 700.00 kg
Gesamtmasse 730.00 kg
Länge 0.30 m
Durchmesser 4.10 m
Spannweite 29.00 m
Form Box + pan
Hersteller SPXS
Bus-Typ Starlink V2M
Phasenstatus In Orbit
Besitzer/Staat SPXS/US

Große Konstellationen

Loading constellations...